Home > Weather > Seelze > Past weeks

Flag for Germany Past Weather in Seelze, Lower Saxony, Germany — Yesterday and Last 2 Weeks

Now
68 °F

Sunny.


Feels Like: 68 °F
Forecast: 56 / 67 °F
Wind: 5 mph from North

Location: Hannover

Current Time: Jun 28, 2016 at 5:08:52 PM

Latest Report: Jun 28, 2016 at 4:20 PM


Visibility: 10 mi

Pressure: 30.04 "Hg

Humidity: 46%

Dew Point: 46 °F

Location of SeelzeLocation

Past Weather in Seelze — Graph

°F

Seelze Temperature Yesterday

Maximum temperature yesterday: 72 °F (at 2:50 PM)
Minimum temperature yesterday: 54 °F (at 1:20 AM)
Average temperature yesterday: 62 °F

High & Low Weather Summary for the Past Weeks

 TemperatureHumidityPressure
High90 °F (Jun 23, 3:20 PM)100% (Jun 13, 11:50 PM)30.24 "Hg (Jun 13, 11:50 PM)
Low50 °F (Jun 19, 11:50 PM)36% (Jun 23, 6:50 PM)29.45 "Hg (Jun 14, 5:50 PM)
Average64 °F80%29.91 "Hg
* Reported Jun 13 4:20 PM — Jun 28 4:20 PM, Seelze, Weather by CustomWeather, © 2016

Note: Actual official high and low records may vary slightly from our data, if they occured in-between our weather recording intervals... More about our weather records

Advertising

Seelze Weather History for the Previous 24 Hours

Scroll right to see more
 ConditionsComfort  
Time TempWeatherWind HumidityBarometerVisibility
4:20 PM
Tue, Jun 28
68 °FSunny.5 mph46%30.04 "Hg10 mi
3:20 PM66 °FScattered clouds.6 mph49%30.04 "HgN/A
2:50 PM66 °FScattered clouds.5 mph49%30.04 "HgN/A
2:20 PM66 °FScattered clouds.7 mph52%30.07 "HgN/A
1:50 PM66 °FScattered clouds.6 mph49%30.07 "HgN/A
1:20 PM66 °FScattered clouds.7 mph52%30.07 "HgN/A
12:50 PM66 °FScattered clouds.7 mph52%30.07 "HgN/A
12:20 PM63 °FScattered clouds.9 mph59%30.09 "HgN/A
11:50 AM63 °FScattered clouds.7 mph64%30.09 "HgN/A
11:20 AM63 °FScattered clouds.7 mph64%30.09 "HgN/A
10:50 AM63 °FScattered clouds.7 mph68%30.09 "HgN/A
10:20 AM61 °FScattered clouds.8 mph68%30.09 "HgN/A
9:50 AM59 °FScattered clouds.7 mph72%30.09 "HgN/A
9:20 AM59 °FScattered clouds.6 mph72%30.09 "HgN/A
8:50 AM57 °FPassing clouds.7 mph82%30.09 "HgN/A
8:20 AM57 °FScattered clouds.7 mph82%30.09 "HgN/A
7:50 AM55 °FPartly sunny.6 mph94%30.09 "HgN/A
7:20 AM55 °FPartly sunny.6 mph94%30.09 "HgN/A
6:50 AM54 °FPartly sunny.5 mph100%30.07 "HgN/A
6:20 AM54 °FPartly sunny.5 mph94%30.09 "HgN/A
5:50 AM54 °FPartly cloudy.5 mph100%30.07 "HgN/A
5:20 AM54 °FPartly cloudy.6 mph100%30.07 "HgN/A
4:50 AM55 °FPassing clouds.6 mph94%30.07 "HgN/A
4:20 AM55 °FPartly cloudy.6 mph94%30.07 "HgN/A
3:50 AM55 °FPassing clouds.8 mph94%30.07 "HgN/A
3:20 AM55 °FPartly cloudy.7 mph100%30.07 "HgN/A
2:50 AM57 °FPartly cloudy.8 mph94%30.07 "HgN/A
2:20 AM59 °FPartly cloudy.13 mph94%30.07 "HgN/A
1:50 AM59 °FLight rain. Partly cloudy.9 mph94%30.07 "HgN/A
1:20 AM59 °FPartly cloudy.6 mph94%30.04 "HgN/A
12:50 AM59 °FPartly cloudy.5 mph94%30.04 "HgN/A
12:20 AM59 °FLight rain. Mostly cloudy.9 mph94%30.04 "HgN/A
11:50 PM
Mon, Jun 27
61 °FRain. Overcast.6 mph94%30.04 "Hg4 mi
11:20 PM61 °FRain. Partly cloudy.7 mph94%30.04 "Hg4 mi
10:50 PM61 °FPartly cloudy.5 mph94%30.04 "Hg4 mi
10:20 PM63 °FDrizzle. Broken clouds.5 mph88%30.04 "HgN/A
9:50 PM63 °FDrizzle. Broken clouds.6 mph88%30.01 "HgN/A
9:20 PM63 °FBroken clouds.7 mph88%30.01 "HgN/A
8:50 PM63 °FPartly sunny.6 mph88%30.01 "HgN/A
8:20 PM63 °FScattered showers. Partly sunny.7 mph88%30.01 "HgN/A
7:50 PM64 °FLight rain. Partly sunny.10 mph78%30.01 "HgN/A
7:20 PM66 °FLight rain. Partly sunny.9 mph68%30.01 "HgN/A
6:50 PM66 °FLight rain. Partly sunny.10 mph68%30.01 "HgN/A
6:20 PM68 °FPartly sunny.12 mph64%30.01 "HgN/A
5:50 PM68 °FPartly sunny.13 mph60%30.01 "HgN/A
5:20 PM72 °FBroken clouds.14 mph57%30.01 "HgN/A
Weather by CustomWeather, © 2016

See weather overviewHow to use our weather pages